Location: Home
(42.5358°N, 72.7383°W)
Time: 08:36:29
(UTC-04:00)

A-11 Canister half - Pass Details

Date: 29 June 2022
Orbit: 1514 x 1685 km, 47.2° (Epoch: 15 August)

Event Time Altitude Azimuth Distance (km) Brightness Sun altitude
Rises 04:21:28 0° 292° (WNW) 4,905 11.4 -8.8°
Reaches altitude 10° 04:24:39 10° 292° (WNW) 3,899 10.9 -8.3°
Maximum altitude 04:34:39 88° 23° (NNE) 1,614 9.2 -7.0°
Drops below altitude 10° 04:44:16 10° 115° (ESE) 3,754 11.4 -5.6°
Sets 04:47:16 0° 115° (ESE) 4,716 11.9 -5.2°
